Regional Weather Roundup
Issued by NWS Grand Forks, ND

Home | Current Version | Previous Version | Graphics & Text | Print | Product List | Glossary On
Versions: 1 2 3 4 5 6 7 8 9 10 11 12 13 14 15 16 17 18 19 20 21 22 23 24 25 26 27 28 29 30 31 32 33 34 35 36 37 38 39 40 41 42 43 44 45 46 47 48 49 50
000
ASUS43 KFGF 250631
RWRFGF
PRAIRIE TO PINES  WEATHER ROUNDUP
NATIONAL WEATHER SERVICE EASTERN NORTH DAKOTA/GRAND FORKS ND
100 AM CDT FRI JUL 25 2014

 **SATELLITE DATA USED TO AUGMENT SKY COVER AT AUTOMATED STATIONS**
 *****  WEATHER ACROSS EASTERN NORTH DAKOTA  *****

CITY           SKY/WX    TMP DP  RH WIND       PRES   REMARKS
GRAND FORKS    CLOUDY    70  61  73 SE9       29.78F
6HR MIN TEMP:  68; 6HR MAX TEMP:  74;

GRAND FRKS AFB CLOUDY    68  65  90 SE7       29.79F
GRAND FRKS NWS   N/A     70 N/A N/A SE5         N/A
DEVILS LAKE    CLOUDY    66  61  82 E10       29.78F
6HR MIN TEMP:  68; 6HR MAX TEMP:  73;

FARGO          LGT RAIN  69  61  75 SE8       29.77F
WAHPETON ARPT  CLOUDY    64  59  82 E9        29.77F
$$

 ***** WEATHER ACROSS CENTRAL AND WESTERN NORTH DAKOTA  *****

CITY           SKY/WX    TMP DP  RH WIND       PRES   REMARKS
BISMARCK       CLOUDY    68  65  90 E9        29.66F
6HR MIN TEMP:  68; 6HR MAX TEMP:  80; 6HR PCP: TRACE;

MINOT          LGT RAIN  68  66  93 NW6       29.79R FOG
6HR MIN TEMP:  68; 6HR MAX TEMP:  78; 6HR PCP:  0.01;

JAMESTOWN      CLOUDY    67  63  87 NE6       29.73F
6HR MIN TEMP:  67; 6HR MAX TEMP:  73;

MINOT AFB      TSTM      68  68 100 SW3       29.79R
GARRISON         N/A     69  67  93 NW3       29.74R
WILLISTON      PTCLDY    60  56  86 NW7       29.83R
6HR MIN TEMP:  60; 6HR MAX TEMP:  83; 6HR PCP:  0.17;

DICKINSON      CLEAR     66  63  90 NW14      29.78R
6HR MIN TEMP:  66; 6HR MAX TEMP:  81; 6HR PCP: TRACE;

HETTINGER      PTCLDY    67  62  84 NW20G26   29.78R
6HR MIN TEMP:  67; 6HR MAX TEMP:  80;

$$

 *****  OTHER AIRPORT OBSERVATIONS IN OUR AREA  *****

CITY           SKY/WX    TMP DP  RH WIND       PRES   REMARKS
WALHALLA         N/A     68  66  94 S8          N/A
GRAFTON AIRPOR CLOUDY    68  63  83 SE5       29.80R
VALLEY CITY AR FAIR      64  64 100 E8        29.73F
CANDO          FAIR      66  64  94 SE13      29.76F
CAVALIER APRT  CLOUDY    68  63  83 CALM      29.81R
GWINNER        CLOUDY    66  66 100 S14       29.75R
SHEYENNE NWR     N/A     65  61  88 E7        29.95S
ROLLA          CLOUDY    64  64 100 E8        29.76F
 ***** THE ABOVE OBSERVATIONS ARE NON NWS ARE NOT QUALITY
       CONTROLLED AND MAY MIS-REPORT RAIN FOR SNOW...
$$

  *****  WEATHER ACROSS NORTHERN MINNESOTA  *****

CITY           SKY/WX    TMP DP  RH WIND       PRES   REMARKS
FLAG ISLAND    MOCLDY    70  59  68 S8        29.85S
WARROAD        CLOUDY    64  61  88 SE5       29.84S
ROSEAU         PTCLDY    64  59  82 SE5       29.82F
HALLOCK        CLOUDY    68  63  83 S6        29.81R
THF RVR FALLS  CLOUDY    68  59  73 SE12      29.81F
6HR MIN TEMP:  64; 6HR MAX TEMP:  75;

BAUDETTE       MOCLDY    64  58  80 VRB3      29.87F
6HR MIN TEMP:  63; 6HR MAX TEMP:  70;

WASKISH        MOCLDY    63  59  88 E3        29.85F
CROOKSTON      CLOUDY    70  61  73 SE8       29.79F
$$
  *****  WEATHER ACROSS CENTRAL AND WEST MINNESOTA  *****

CITY           SKY/WX    TMP DP  RH WIND       PRES   REMARKS
FOSSTON        CLOUDY    66  57  72 SE10      29.82F
BEMIDJI        CLOUDY    66  58  77 SE7       29.85F
PARK RAPIDS    CLOUDY    67  60  78 SE8       29.86S
6HR MIN TEMP:  66; 6HR MAX TEMP:  74;

ELBOW LAKE     CLOUDY    66  60  81 SE12      29.79F
WADENA         PTCLDY    64  59  82 SE8       29.83F
DETROIT LAKES  MOCLDY    68  61  77 SE14      29.81F
MOORHEAD       DRIZZLE   70  64  83 SE10      29.76F
FERGUS FALLS   CLOUDY    68  57  68 SE7       29.79F
MORRIS MN      CLOUDY    64  61  88 SE15G22   29.76F
STAPLES        PTCLDY    64  59  82 CALM      29.85F
$$
  *****  WEATHER ELSEWHERE ACROSS MINNESOTA  *****

CITY           SKY/WX    TMP DP  RH WIND       PRES   REMARKS
DULUTH         PTCLDY    66  56  70 S5        29.92R
6HR MIN TEMP:  63; 6HR MAX TEMP:  73; 6HR PCP: TRACE;

INTRNTL FALLS  MOCLDY    59  58  96 CALM      29.90R
6HR MIN TEMP:  55; 6HR MAX TEMP:  72;

ELY            CLEAR     55  54  94 CALM      29.92F
CLOQUET        CLOUDY    64  57  77 CALM      29.90F
WHEATON        MOCLDY    63  57  82 SE16G22   29.76S
BRAINERD       CLOUDY    65  61  87 S3        29.89F
6HR MIN TEMP:  64; 6HR MAX TEMP:  73;

HIBBING        PTCLDY    59  56  89 CALM      29.91R
6HR MIN TEMP:  58; 6HR MAX TEMP:  73; 6HR PCP: TRACE;

ALEXANDRIA     MOCLDY    64  60  87 SE9       29.85R
6HR MIN TEMP:  64; 6HR MAX TEMP:  72;

SAINT CLOUD    PTCLDY    68  59  73 E6        29.87F
6HR MIN TEMP:  66; 6HR MAX TEMP:  77;

MINNEAPOLIS    MOCLDY    69  59  70 SE9       29.91F
6HR MIN TEMP:  69; 6HR MAX TEMP:  79;

$$

  *****  WEATHER ACROSS SOUTH DAKOTA  *****

CITY           SKY/WX    TMP DP  RH WIND       PRES   REMARKS
SIOUX FALLS    MOCLDY    69  62  78 SE8       29.78F
6HR MIN TEMP:  69; 6HR MAX TEMP:  72;

BROOKINGS      NOT AVBL
WATERTOWN      MOCLDY    67  62  84 S16       29.74F
6HR MIN TEMP:  66; 6HR MAX TEMP:  71;

HURON          MOCLDY    70  62  76 SE12G18   29.70R
6HR MIN TEMP:  70; 6HR MAX TEMP:  76;

SISSETON         N/A     66  62  87 S12       29.73F
ABERDEEN       CLOUDY    67  65  93 S25G35    29.64F
6HR MIN TEMP:  67; 6HR MAX TEMP:  76; 6HR PCP:  0.20;

MITCHELL       MOCLDY    72  64  76 SE12      29.68F
PIERRE         MOCLDY    75  67  76 E15       29.67F
6HR MIN TEMP:  75; 6HR MAX TEMP:  91;

MOBRIDGE       CLOUDY    72  65  78 S7        29.62R
RAPID CITY     CLEAR     73  66  78 N14       29.77R
6HR MIN TEMP:  73; 6HR MAX TEMP:  89;

$$

  *****  SOME WEATHER IN NEARBY STATES *****

CITY           SKY/WX    TMP DP  RH WIND       PRES   REMARKS
GLASGOW MT     CLEAR     56  40  55 S3        29.88R
6HR MIN TEMP:  56; 6HR MAX TEMP:  75;

GREAT FALLS MT CLEAR     58  33  39 SW14      29.99R
6HR MIN TEMP:  57; 6HR MAX TEMP:  72;

CHEYENNE WY    PTCLDY    70  53  54 SW16G26   30.12F
6HR MIN TEMP:  70; 6HR MAX TEMP:  86;

SCOTTSBLUFF NE CLEAR     77  54  44 S7        29.90R
6HR MIN TEMP:  71; 6HR MAX TEMP:  86;

OMAHA NE       CLOUDY    75  60  59 S15       29.88R
6HR MIN TEMP:  74; 6HR MAX TEMP:  79;

DES MOINES IA  PTCLDY    70  59  68 SE9       29.94F
6HR MIN TEMP:  69; 6HR MAX TEMP:  74; 6HR PCP: TRACE;

DAVENPORT IA   CLEAR     62  54  74 S5        30.05R
6HR MIN TEMP:  62; 6HR MAX TEMP:  73;

CHICAGO IL     PTCLDY    59  47  64 SE6       30.04F
6HR MIN TEMP:  59; 6HR MAX TEMP:  71;

EAU CLAIRE WI  CLEAR     68  60  75 S10       29.95F
6HR MIN TEMP:  65; 6HR MAX TEMP:  77;

LA CROSSE WI   CLEAR     68  60  75 SE6       30.00S
6HR MIN TEMP:  68; 6HR MAX TEMP:  78;

$$

  *****  SOME NATIONAL WEATHER *****

CITY           SKY/WX    TMP DP  RH WIND       PRES   REMARKS
LA GUARDIA NY  MOCLDY    71  57  61 MISG      29.92R
6HR MIN TEMP:  71; 6HR MAX TEMP:  77;

RALEIGH NC     PTCLDY    67  65  93 NE3       29.99S
6HR MIN TEMP:  67; 6HR MAX TEMP:  73; 6HR PCP:  0.66;

ATLANTA GA     MOCLDY    73  70  90 W6        30.00S
6HR MIN TEMP:  72; 6HR MAX TEMP:  75;

NEW ORLEANS LA PTCLDY    79  74  84 SW3       29.98F
6HR MIN TEMP:  78; 6HR MAX TEMP:  86;

OKLAHOMA CITY  PTCLDY    76  68  76 S8        30.00F
6HR MIN TEMP:  76; 6HR MAX TEMP:  91;

ALBUQUERQUE NM PTCLDY    79  40  24 S10       30.21R
6HR MIN TEMP:  78; 6HR MAX TEMP:  91;

SALT LAKE CITY PTCLDY    74  48  39 NW7       29.97R
6HR MIN TEMP:  73; 6HR MAX TEMP:  93;

LOS ANGELES CA PTCLDY    70  60  70 S5        29.80S
6HR MIN TEMP:  70; 6HR MAX TEMP:  78;

BOISE ID       CLEAR     65  32  29 NW6       30.05F


USA.gov is the U.S. government's official web portal to all federal, state and local government web resources and services.